Flag for Israel Weather past 2 weeks in Eilat, Israel

Now
100 °F

Passing clouds.


Feels Like: 97 °F
Forecast: 74 / 104 °F
Wind: 13 mph from Northeast

Location: Eilat

Current Time: Jul 30, 2014 at 12:26:41 PM

Latest Report: Jul 30, 2014 at 11:50 AM


Visibility: N/A

Pressure: 29.74 "Hg

Humidity: 18%

Dew point: 50 °F

Location of EilatLocation

Historic Weather in Eilat — Graph

°F

Eilat temperature yesterday

Maximum temperature yesterday: 106 °F (at 3:50 PM)
Minimum temperature yesterday: 82 °F (at 5:50 AM)
Average temperature yesterday: 97 °F

Past Weeks' High & Low Weather Summary

 TemperatureHumidityPressure
High109 °F (Jul 27, 4:50 PM)58% (Jul 19, 6:50 AM)29.89 "Hg (Jul 19, 6:50 AM)
Low77 °F (Jul 20, 5:50 AM)11% (Jul 24, 5:50 PM)29.62 "Hg (Jul 25, 4:50 PM)
Average94 °F31%29.75 "Hg
* Reported Jul 15 10:50 AM — Jul 30 10:50 AM, Eilat, Weather by CustomWeather, © 2014

Note: Actual official high and low records may vary slightly from our data, if they occured in-between our weather recording intervals... More about our weather records

Advertising

Eilat weather history for previous 24 hours

 ConditionsComfort  
Time TempWeatherWind HumidityBarometerVisibility
10:50 AM
Jul 30
95 °FSunny.13 mph26%29.74 "Hg10 mi
9:50 AM91 °FSunny.9 mph30%29.77 "Hg10 mi
8:50 AM88 °FSunny.9 mph38%29.77 "Hg10 mi
7:50 AM84 °FSunny.7 mph43%29.77 "Hg10 mi
6:50 AM82 °FClear.3 mph45%29.77 "Hg10 mi
5:50 AM82 °FClear.8 mph45%29.74 "Hg10 mi
9:50 PM
Jul 29
97 °FClear.14 mph23%29.71 "Hg10 mi
8:50 PM99 °FClear.12 mph25%29.68 "Hg10 mi
7:50 PM100 °FSunny.17 mph24%29.68 "Hg10 mi
6:50 PM102 °FSunny.18 mph23%29.65 "Hg10 mi
5:50 PM106 °FSunny.20 mph19%29.65 "Hg10 mi
4:50 PM106 °FSunny.20 mph18%29.68 "Hg10 mi
3:50 PM106 °FPassing clouds.18 mph18%29.68 "HgN/A
2:50 PM104 °FPassing clouds.17 mph21%29.71 "HgN/A
1:50 PM102 °FPassing clouds.20 mph26%29.71 "HgN/A
12:50 PM100 °FPassing clouds.18 mph27%29.74 "HgN/A
Weather by CustomWeather, © 2014

See weather overviewHow to use our weather pages